Time,TemperatureF,DewpointF,PressureIn,WindDirection,WindDirectionDegrees,WindSpeedMPH,WindSpeedGustMPH,Humidity,HourlyPrecipIn,Conditions,Clouds,dailyrainin,SolarRadiationWatts/m^2,SoftwareType,DateUTC
2013-04-06 00:00:00,37.0,-99.9,44.89,WNW,295,1.0,7.0,-999,-99.99,,,0.00,0.000000,,2013-04-06 07:00:00,
2013-04-06 00:53:00,37.0,-99.9,44.89,North,-999,-999.0,-999.0,-999,-99.99,,,0.00,,,2013-04-06 07:53:00,
2013-04-06 01:00:00,39.0,-99.9,44.89,WNW,301,1.0,7.0,-999,-99.99,,,-99.99,0.000000,,2013-04-06 08:00:00,
2013-04-06 02:00:00,40.0,-99.9,44.89,North,-999,-999.0,-999.0,-999,-99.99,,,0.00,,,2013-04-06 09:00:00,
2013-04-06 03:00:00,37.0,-99.9,44.89,West,267,1.0,8.0,-999,-99.99,,,-99.99,0.000000,,2013-04-06 10:00:00,
2013-04-06 04:00:00,34.0,-99.9,44.89,West,275,0.0,1.0,-999,-99.99,,,0.00,0.000000,,2013-04-06 11:00:00,
2013-04-06 05:00:00,30.0,-99.9,44.89,West,279,1.0,2.0,-999,-99.99,,,0.00,0.000000,,2013-04-06 12:00:00,
2013-04-06 06:00:00,35.0,-99.9,44.89,West,266,1.0,4.0,-999,-99.99,,,0.00,0.000000,,2013-04-06 13:00:00,
2013-04-06 08:00:00,45.0,-99.9,44.89,SSW,211,1.0,6.0,-999,-99.99,,,0.00,7.000000,,2013-04-06 15:00:00,
2013-04-06 09:00:00,48.0,-99.9,44.89,ESE,104,1.0,5.0,-999,-99.99,,,0.00,28.400000,,2013-04-06 16:00:00,
2013-04-06 10:00:00,50.0,-99.9,44.89,ENE,68,1.0,5.0,-999,-99.99,,,0.00,42.099998,,2013-04-06 17:00:00,
2013-04-06 11:00:00,49.0,-99.9,44.89,SE,135,1.0,6.0,-999,-99.99,,,0.00,46.099998,,2013-04-06 18:00:00,
2013-04-06 12:00:00,55.0,-99.9,44.89,East,95,2.0,6.0,-999,-99.99,,,0.00,62.299999,,2013-04-06 19:00:00,
2013-04-06 13:00:00,51.0,-99.9,44.89,NNW,347,3.0,12.0,-999,-99.99,,,0.00,58.299999,,2013-04-06 20:00:00,
2013-04-06 14:00:00,50.0,-99.9,44.89,NW,320,3.0,9.0,-999,-99.99,,,0.00,46.099998,,2013-04-06 21:00:00,
2013-04-06 15:00:00,50.0,-99.9,44.89,NNW,347,2.0,9.0,-999,-99.99,,,0.00,30.799999,,2013-04-06 22:00:00,
2013-04-06 16:00:00,48.0,-99.9,44.89,NNW,331,2.0,10.0,-999,-99.99,,,0.00,25.299999,,2013-04-06 23:00:00,
2013-04-06 17:00:00,46.0,-99.9,44.89,NW,310,2.0,13.0,-999,-99.99,,,0.00,9.200000,,2013-04-07 00:00:00,
2013-04-06 18:00:00,45.0,-99.9,44.89,WNW,291,4.0,15.0,-999,-99.99,,,0.00,6.100000,,2013-04-07 01:00:00,
2013-04-06 19:00:00,42.0,-99.9,44.89,WNW,293,3.0,12.0,-999,-99.99,,,0.00,0.600000,,2013-04-07 02:00:00,
2013-04-06 20:00:00,40.0,-99.9,44.89,WNW,287,2.0,7.0,-999,-99.99,,,0.00,0.000000,,2013-04-07 03:00:00,
2013-04-06 21:00:00,39.0,-99.9,-100.00,WNW,294,3.0,11.0,-999,-99.99,,,0.00,0.000000,,2013-04-07 04:00:00,
2013-04-06 21:53:00,39.0,-99.9,-100.00,WNW,294,3.0,11.0,-999,-99.99,,,0.00,0.000000,,2013-04-07 04:53:00,
2013-04-06 22:00:00,39.0,-99.9,-100.00,WNW,293,4.0,14.0,-999,-99.99,,,0.00,0.000000,,2013-04-07 05:00:00,
2013-04-06 22:53:00,39.0,-99.9,-100.00,WNW,293,4.0,14.0,-999,-99.99,,,0.00,0.000000,,2013-04-07 05:53:00,
2013-04-06 23:00:00,38.0,-99.9,44.89,WNW,287,4.0,11.0,-999,-99.99,,,0.00,0.000000,,2013-04-07 06:00:00,
2013-04-06 23:43:00,38.0,-99.9,44.89,North,-999,-999.0,-999.0,-999,-99.99,,,0.00,,,2013-04-07 06:43:00,
2013-04-06 23:53:00,38.0,-99.9,44.89,WNW,287,4.0,11.0,-999,-99.99,,,0.00,0.000000,,2013-04-07 06:53:00,